Volver al catálogo

KOMPSAT 5

ActivoCienciaSSO
NORAD 39227·PAYLOAD·🇰🇷 South Korea

Lanzado Aug 22, 2013 desde Dombarovsky

Loading…

Próximos Pases (próximas 24 horas)

TLE

ActualizadoSource: Space-Track

Época: Sep 14, 2026, 14:52 UTC

1 39227U 13042A   26257.61981213  .00000200  00000-0  18571-4 0  9994
2 39227  97.6199  83.0771 0003329 161.8879 198.2467 15.04543056717307

Sigue KOMPSAT 5 en tiempo real con AllMySat

Download on the App Store